Time,TemperatureF,DewpointF,PressureIn,WindDirection,WindDirectionDegrees,WindSpeedMPH,WindSpeedGustMPH,Humidity,HourlyPrecipIn,Conditions,Clouds,dailyrainin,SoftwareType,DateUTC
2013-08-12 00:02:00,59.0,52.0,30.03,ESE,103,0.0,2.0,77,0.00,,,0.00,,2013-08-12 04:02:00,
2013-08-12 00:12:00,59.0,52.0,30.03,ESE,103,0.0,1.0,79,0.00,,,0.00,,2013-08-12 04:12:00,
2013-08-12 00:22:00,59.0,53.0,30.03,SE,126,0.0,1.0,80,0.00,,,0.00,,2013-08-12 04:22:00,
2013-08-12 00:33:00,59.0,53.0,30.03,SE,126,0.0,1.0,80,0.00,,,0.00,,2013-08-12 04:33:00,
2013-08-12 00:43:00,59.0,53.0,30.03,East,86,0.0,0.0,81,0.00,,,0.00,,2013-08-12 04:43:00,
2013-08-12 00:52:00,59.0,53.0,30.03,East,83,0.0,5.0,80,0.00,,,0.00,,2013-08-12 04:52:00,
2013-08-12 01:02:00,59.0,53.0,30.03,East,83,0.0,5.0,80,0.00,,,0.00,,2013-08-12 05:02:00,
2013-08-12 01:11:00,59.0,53.0,30.03,NNE,22,0.0,141.0,80,0.00,,,0.00,,2013-08-12 05:11:00,
2013-08-12 01:22:00,59.0,52.0,30.03,East,82,0.0,1.0,79,0.00,,,0.00,,2013-08-12 05:22:00,
2013-08-12 01:32:00,59.0,52.0,30.03,East,82,0.0,1.0,79,0.00,,,0.00,,2013-08-12 05:32:00,
2013-08-12 01:43:00,59.0,53.0,30.03,ENE,65,0.0,64.0,80,0.00,,,0.00,,2013-08-12 05:43:00,
2013-08-12 01:52:00,59.0,53.0,30.03,East,82,0.0,1.0,80,0.00,,,0.00,,2013-08-12 05:52:00,
2013-08-12 02:02:00,59.0,53.0,30.03,East,82,0.0,1.0,80,0.00,,,0.00,,2013-08-12 06:02:00,
2013-08-12 02:11:00,59.0,53.0,30.02,NE,37,0.0,2.0,80,0.00,,,0.00,,2013-08-12 06:11:00,
2013-08-12 02:22:00,59.0,52.0,30.02,ESE,113,0.0,236.0,79,0.00,,,0.00,,2013-08-12 06:22:00,
2013-08-12 02:32:00,59.0,52.0,30.02,ESE,113,0.0,236.0,79,0.00,,,0.00,,2013-08-12 06:32:00,
2013-08-12 02:42:00,59.0,52.0,30.02,North,1,0.0,4.0,79,0.00,,,0.00,,2013-08-12 06:42:00,
2013-08-12 02:52:00,60.0,53.0,30.01,NNW,328,0.0,2.0,78,0.00,,,0.00,,2013-08-12 06:52:00,
2013-08-12 03:01:00,60.0,53.0,30.01,NNW,328,0.0,2.0,78,0.00,,,0.00,,2013-08-12 07:01:00,
2013-08-12 03:12:00,60.0,53.0,30.01,North,8,0.0,3.0,78,0.00,,,0.00,,2013-08-12 07:12:00,
2013-08-12 03:22:00,59.0,53.0,30.01,North,4,0.0,102.0,80,0.00,,,0.00,,2013-08-12 07:22:00,
2013-08-12 03:33:00,59.0,53.0,30.01,North,4,0.0,102.0,80,0.00,,,0.00,,2013-08-12 07:33:00,
2013-08-12 03:43:00,59.0,52.0,30.01,NNE,23,0.0,1.0,79,0.00,,,0.00,,2013-08-12 07:43:00,
2013-08-12 03:52:00,59.0,53.0,30.01,East,92,0.0,1.0,80,0.00,,,0.00,,2013-08-12 07:52:00,
2013-08-12 04:02:00,59.0,53.0,30.01,East,92,0.0,1.0,80,0.00,,,0.00,,2013-08-12 08:02:00,
2013-08-12 04:12:00,59.0,54.0,30.01,East,92,0.0,148.0,82,0.00,,,0.00,,2013-08-12 08:12:00,
2013-08-12 04:22:00,59.0,54.0,30.01,East,92,0.0,148.0,82,0.00,,,0.00,,2013-08-12 08:22:00,
2013-08-12 04:33:00,58.0,53.0,30.01,East,92,0.0,1.0,82,0.00,,,0.00,,2013-08-12 08:33:00,
2013-08-12 04:43:00,57.0,52.0,30.01,East,91,0.0,1.0,83,0.00,,,0.00,,2013-08-12 08:43:00,
2013-08-12 04:53:00,57.0,52.0,30.01,East,91,0.0,1.0,83,0.00,,,0.00,,2013-08-12 08:53:00,
2013-08-12 05:02:00,57.0,52.0,30.01,East,90,0.0,1.0,84,0.00,,,0.00,,2013-08-12 09:02:00,
2013-08-12 05:11:00,57.0,52.0,30.01,East,89,0.0,1.0,84,0.00,,,0.00,,2013-08-12 09:11:00,
2013-08-12 05:22:00,56.0,52.0,30.01,ENE,75,0.0,1.0,85,0.00,,,0.00,,2013-08-12 09:22:00,
2013-08-12 05:32:00,56.0,52.0,30.01,ENE,75,0.0,1.0,85,0.00,,,0.00,,2013-08-12 09:32:00,
2013-08-12 05:43:00,58.0,51.0,30.01,NNW,348,0.0,1.0,78,0.00,,,0.00,,2013-08-12 09:43:00,
2013-08-12 05:53:00,58.0,51.0,30.01,WNW,291,1.0,3.0,78,0.00,,,0.00,,2013-08-12 09:53:00,
2013-08-12 06:02:00,58.0,51.0,30.01,WNW,291,1.0,3.0,78,0.00,,,0.00,,2013-08-12 10:02:00,
2013-08-12 06:12:00,58.0,52.0,30.01,NNW,338,1.0,2.0,80,0.00,,,0.00,,2013-08-12 10:12:00,
2013-08-12 06:22:00,57.0,51.0,30.01,ESE,123,0.0,2.0,81,0.00,,,0.00,,2013-08-12 10:22:00,
2013-08-12 06:32:00,57.0,51.0,30.01,ESE,123,0.0,2.0,81,0.00,,,0.00,,2013-08-12 10:32:00,
2013-08-12 06:43:00,56.0,51.0,30.01,North,352,0.0,1.0,82,0.00,,,0.00,,2013-08-12 10:43:00,
2013-08-12 06:52:00,56.0,51.0,30.01,WNW,300,0.0,1.0,83,0.00,,,0.00,,2013-08-12 10:52:00,
2013-08-12 07:02:00,56.0,51.0,30.01,WNW,300,0.0,1.0,83,0.00,,,0.00,,2013-08-12 11:02:00,
2013-08-12 07:12:00,55.0,51.0,30.02,East,89,0.0,1.0,85,0.00,,,0.00,,2013-08-12 11:12:00,
2013-08-12 07:32:00,56.0,51.0,30.02,NW,322,0.0,1.0,84,0.00,,,0.00,,2013-08-12 11:32:00,
2013-08-12 07:42:00,57.0,53.0,30.02,WNW,299,1.0,4.0,85,0.00,,,0.00,,2013-08-12 11:42:00,
2013-08-12 07:52:00,57.0,53.0,30.02,WNW,299,1.0,4.0,85,0.00,,,0.00,,2013-08-12 11:52:00,
2013-08-12 08:02:00,57.0,52.0,30.02,NNW,340,0.0,3.0,82,0.00,,,0.00,,2013-08-12 12:02:00,
2013-08-12 08:12:00,57.0,52.0,30.03,WSW,238,1.0,2.0,83,0.00,,,0.00,,2013-08-12 12:12:00,
2013-08-12 08:22:00,57.0,52.0,30.03,WSW,238,1.0,2.0,83,0.00,,,0.00,,2013-08-12 12:22:00,
2013-08-12 08:32:00,58.0,52.0,30.02,NNE,19,0.0,2.0,81,0.00,,,0.00,,2013-08-12 12:32:00,
2013-08-12 08:43:00,58.0,53.0,30.02,North,8,0.0,3.0,82,0.00,,,0.00,,2013-08-12 12:43:00,
2013-08-12 08:52:00,58.0,53.0,30.02,North,8,0.0,3.0,82,0.00,,,0.00,,2013-08-12 12:52:00,
2013-08-12 09:02:00,59.0,52.0,30.02,North,11,2.0,5.0,78,0.00,,,0.00,,2013-08-12 13:02:00,
2013-08-12 09:12:00,60.0,53.0,30.02,SE,125,2.0,7.0,77,0.00,,,0.00,,2013-08-12 13:12:00,
2013-08-12 09:22:00,60.0,53.0,30.02,SE,125,2.0,7.0,77,0.00,,,0.00,,2013-08-12 13:22:00,
2013-08-12 09:33:00,61.0,53.0,30.03,North,5,1.0,4.0,75,0.00,,,0.00,,2013-08-12 13:33:00,
2013-08-12 09:43:00,61.0,53.0,30.02,SSW,206,0.0,3.0,75,0.00,,,0.00,,2013-08-12 13:43:00,
2013-08-12 09:53:00,61.0,53.0,30.02,SSW,206,0.0,3.0,75,0.00,,,0.00,,2013-08-12 13:53:00,
2013-08-12 10:02:00,62.0,54.0,30.02,NW,307,0.0,3.0,75,0.00,,,0.00,,2013-08-12 14:02:00,
2013-08-12 10:11:00,63.0,55.0,30.01,SSW,200,0.0,2.0,74,0.00,,,0.00,,2013-08-12 14:11:00,
2013-08-12 10:22:00,63.0,55.0,30.01,SSW,200,0.0,2.0,74,0.00,,,0.00,,2013-08-12 14:22:00,
2013-08-12 10:32:00,64.0,55.0,30.01,NE,46,0.0,4.0,73,0.00,,,0.00,,2013-08-12 14:32:00,
2013-08-12 10:42:00,65.0,55.0,30.01,West,270,0.0,5.0,71,0.00,,,0.00,,2013-08-12 14:42:00,
2013-08-12 10:52:00,65.0,55.0,30.01,West,270,0.0,5.0,71,0.00,,,0.00,,2013-08-12 14:52:00,
2013-08-12 11:02:00,66.0,55.0,30.01,West,276,0.0,2.0,68,0.00,,,0.00,,2013-08-12 15:02:00,
2013-08-12 11:33:00,68.0,56.0,30.00,WSW,255,0.0,2.0,66,0.00,,,0.00,,2013-08-12 15:33:00,
2013-08-12 11:43:00,68.0,55.0,30.00,WNW,289,1.0,4.0,63,0.00,,,0.00,,2013-08-12 15:43:00,
2013-08-12 12:33:00,71.0,55.0,29.99,NE,47,1.0,4.0,58,0.00,,,0.00,,2013-08-12 16:33:00,
2013-08-12 12:53:00,71.0,55.0,29.98,SW,236,1.0,7.0,57,0.00,,,0.00,,2013-08-12 16:53:00,
2013-08-12 13:11:00,72.0,54.0,29.98,North,6,2.0,5.0,54,0.00,,,0.00,,2013-08-12 17:11:00,
2013-08-12 13:22:00,72.0,57.0,29.98,ESE,117,1.0,5.0,59,0.00,,,0.00,,2013-08-12 17:22:00,
2013-08-12 13:43:00,72.0,57.0,29.97,NE,50,1.0,5.0,59,0.00,,,0.00,,2013-08-12 17:43:00,
2013-08-12 13:52:00,72.0,57.0,29.97,NE,50,1.0,5.0,59,0.00,,,0.00,,2013-08-12 17:52:00,
2013-08-12 14:02:00,73.0,58.0,29.97,SW,232,1.0,6.0,59,0.00,,,0.00,,2013-08-12 18:02:00,
2013-08-12 14:11:00,73.0,58.0,29.97,SW,232,1.0,6.0,59,0.00,,,0.00,,2013-08-12 18:11:00,
2013-08-12 14:24:00,73.0,57.0,29.97,NW,305,1.0,5.0,58,0.00,,,0.00,,2013-08-12 18:24:00,
2013-08-12 14:43:00,75.0,58.0,29.96,NW,319,0.0,4.0,55,0.00,,,0.00,,2013-08-12 18:43:00,
2013-08-12 14:52:00,75.0,58.0,29.96,NW,319,0.0,4.0,55,0.00,,,0.00,,2013-08-12 18:52:00,
2013-08-12 15:22:00,74.0,59.0,29.96,SW,215,0.0,2.0,59,0.00,,,0.00,,2013-08-12 19:22:00,
2013-08-12 15:33:00,74.0,58.0,29.95,SW,236,0.0,3.0,58,0.00,,,0.00,,2013-08-12 19:33:00,
2013-08-12 15:43:00,73.0,58.0,29.95,SSW,211,0.0,1.0,59,0.00,,,0.00,,2013-08-12 19:43:00,
2013-08-12 15:52:00,73.0,58.0,29.95,SSW,211,0.0,1.0,59,0.00,,,0.00,,2013-08-12 19:52:00,
2013-08-12 16:02:00,74.0,57.0,29.95,North,352,2.0,4.0,56,0.00,,,0.00,,2013-08-12 20:02:00,
2013-08-12 16:11:00,74.0,57.0,29.95,North,352,2.0,4.0,56,0.00,,,0.00,,2013-08-12 20:11:00,
2013-08-12 16:22:00,76.0,58.0,29.94,WNW,295,1.0,4.0,53,0.00,,,0.00,,2013-08-12 20:22:00,
2013-08-12 16:32:00,74.0,58.0,29.94,SW,220,0.0,3.0,57,0.00,,,0.00,,2013-08-12 20:32:00,
2013-08-12 16:42:00,73.0,58.0,29.94,WNW,298,0.0,2.0,59,0.00,,,0.00,,2013-08-12 20:42:00,
2013-08-12 16:52:00,73.0,58.0,29.94,WNW,298,0.0,2.0,59,0.00,,,0.00,,2013-08-12 20:52:00,
2013-08-12 17:01:00,73.0,58.0,29.94,WNW,297,0.0,3.0,60,0.00,,,0.00,,2013-08-12 21:01:00,
2013-08-12 17:22:00,74.0,56.0,29.93,WSW,249,1.0,5.0,53,0.00,,,0.00,,2013-08-12 21:22:00,
2013-08-12 17:32:00,74.0,56.0,29.93,WSW,249,1.0,5.0,53,0.00,,,0.00,,2013-08-12 21:32:00,
2013-08-12 17:43:00,76.0,58.0,29.94,WNW,299,0.0,3.0,53,0.00,,,0.00,,2013-08-12 21:43:00,
2013-08-12 17:52:00,76.0,58.0,29.94,WNW,299,0.0,3.0,53,0.00,,,0.00,,2013-08-12 21:52:00,
2013-08-12 18:22:00,76.0,57.0,29.93,ENE,70,0.0,2.0,51,0.00,,,0.00,,2013-08-12 22:22:00,
2013-08-12 18:32:00,76.0,57.0,29.93,WSW,250,0.0,1.0,52,0.00,,,0.00,,2013-08-12 22:32:00,
2013-08-12 18:43:00,76.0,58.0,29.93,SW,235,0.0,1.0,53,0.00,,,0.00,,2013-08-12 22:43:00,
2013-08-12 18:53:00,76.0,58.0,29.93,SW,235,0.0,1.0,53,0.00,,,0.00,,2013-08-12 22:53:00,
2013-08-12 19:02:00,72.0,58.0,29.93,SW,235,0.0,1.0,62,0.00,,,0.00,,2013-08-12 23:02:00,
2013-08-12 19:11:00,72.0,58.0,29.93,SW,235,0.0,1.0,62,0.00,,,0.00,,2013-08-12 23:11:00,
2013-08-12 19:22:00,69.0,58.0,29.92,SW,235,0.0,1.0,68,0.00,,,0.00,,2013-08-12 23:22:00,
2013-08-12 19:43:00,68.0,58.0,29.93,SW,235,0.0,0.0,70,0.00,,,0.00,,2013-08-12 23:43:00,
2013-08-12 19:53:00,67.0,57.0,29.92,SW,235,0.0,1.0,71,0.00,,,0.00,,2013-08-12 23:53:00,
2013-08-12 20:12:00,66.0,57.0,29.93,SW,235,0.0,1.0,73,0.00,,,0.00,,2013-08-13 00:12:00,
2013-08-12 20:24:00,65.0,56.0,29.93,SW,235,0.0,0.0,74,0.00,,,0.00,,2013-08-13 00:24:00,
2013-08-12 20:45:00,64.0,56.0,29.93,SW,235,0.0,1.0,74,0.00,,,0.00,,2013-08-13 00:45:00,
2013-08-12 20:53:00,64.0,57.0,29.93,South,173,0.0,1.0,77,0.00,,,0.00,,2013-08-13 00:53:00,
2013-08-12 21:13:00,63.0,56.0,29.93,South,173,0.0,1.0,77,0.00,,,0.00,,2013-08-13 01:13:00,
2013-08-12 21:24:00,63.0,56.0,29.93,South,173,0.0,1.0,77,0.00,,,0.00,,2013-08-13 01:24:00,
2013-08-12 21:42:00,63.0,56.0,29.93,South,174,0.0,0.0,78,0.00,,,0.00,,2013-08-13 01:42:00,
2013-08-12 21:55:00,63.0,56.0,29.93,SE,134,0.0,0.0,79,0.00,,,0.00,,2013-08-13 01:55:00,
2013-08-12 22:11:00,63.0,56.0,29.93,SE,134,0.0,0.0,78,0.00,,,0.00,,2013-08-13 02:11:00,
2013-08-12 22:22:00,63.0,56.0,29.93,SE,132,0.0,0.0,79,0.00,,,0.00,,2013-08-13 02:22:00,
2013-08-12 22:43:00,62.0,56.0,29.93,SE,134,0.0,0.0,81,0.00,,,0.00,,2013-08-13 02:43:00,
2013-08-12 22:52:00,62.0,56.0,29.92,SE,132,0.0,0.0,81,0.00,,,0.00,,2013-08-13 02:52:00,
2013-08-12 23:22:00,61.0,56.0,29.92,SE,132,0.0,1.0,83,0.00,,,0.00,,2013-08-13 03:22:00,
2013-08-12 23:43:00,62.0,56.0,29.92,SE,132,0.0,1.0,82,0.00,,,0.00,,2013-08-13 03:43:00,
2013-08-12 23:54:00,62.0,56.0,29.92,SE,132,0.0,1.0,82,0.00,,,0.00,,2013-08-13 03:54:00,